Regional Weather Roundup
Issued by NWS

Home | Current Version | Previous Version | Graphics & Text | Print | Product List | Glossary On
Versions: 1 2 3 4 5 6 7 8 9 10 11 12 13 14 15 16 17 18 19 20 21 22 23 24 25 26 27 28 29 30 31 32 33 34 35 36 37 38 39 40 41 42 43 44 45 46 47 48 49 50
000
ASUS44 KMEG 221800
RWRTN
TENNESSEE HOURLY STATE WEATHER ROUNDUP
NATIONAL WEATHER SERVICE MEMPHIS TN
100 PM CDT WED MAR 22 2017

TNZ002-004-019-021-049-052-054-088>092-221900-
WEST TENNESSEE

CITY           SKY/WX    TMP DP  RH WIND       PRES   REMARKS
MEMPHIS INTL   CLOUDY    50  41  72 NE10      30.31F
NWS MEMPHIS      N/A     56 N/A N/A MISG        N/A
JACKSON        SUNNY     58  32  37 NE10      30.31F
DYERSBURG      MOSUNNY   55  35  47 NE14      30.35S
PARIS          SUNNY     50  25  37 NE15      30.35F
$$

TNZ008-025-027-028-033-062-065-066-221900-
NORTH MIDDLE TENNESSEE

CITY           SKY/WX    TMP DP  RH WIND       PRES   REMARKS
NASHVILLE      PTSUNNY   55  24  30 NE17      30.34F
CLARKSVILLE    SUNNY     52  22  30 E15       30.37F
SMYRNA         MOSUNNY   55  25  31 N10       30.34F
CROSSVILLE     MOSUNNY   51  19  28 NE9       30.28F
$$

TNZ061-075-076-078-094-096-097-221900-
SOUTH MIDDLE TENNESSEE

CITY           SKY/WX    TMP DP  RH WIND       PRES   REMARKS
TULLAHOMA      SUNNY     54  19  26 NE10      30.28F
WINCHESTER     SUNNY     55  30  38 N12       30.27F
MCMINNVILLE    SUNNY     54  25  32 NE15      30.29F
COLUMBIA       SUNNY     55  28  35 NE10      30.29F
SHELBYVILLE    SUNNY     55  34  44 N16       30.30F
$$

TNZ017-018-042-046-047-221900-
NORTHEAST TENNESSEE

CITY           SKY/WX    TMP DP  RH WIND       PRES   REMARKS
TRI CITIES     MOSUNNY   54  21  27 N9G20     30.27S
$$

TNZ012-013-036-069-073-074-221900-
CENTRAL EAST TENNESSEE

CITY           SKY/WX    TMP DP  RH WIND       PRES   REMARKS
KNOXVILLE      CLOUDY    56  20  24 N15       30.26S
OAK RIDGE      MOSUNNY   57  17  21 E9        30.29F
GATLINBURG     SUNNY     55  23  28 VRB6      30.25F
$$

TNZ083-085-099-221900-
SOUTHEAST TENNESSEE

CITY           SKY/WX    TMP DP  RH WIND       PRES   REMARKS
CHATTANOOGA    PTSUNNY   60  23  24 NE15      30.25F
$$

SKY/WX REPORTED AS FAIR MEANS FEW OR NO CLOUDS BELOW
12 THOUSAND FEET.




USA.gov is the U.S. government's official web portal to all federal, state and local government web resources and services.